Notices

What's New in latest Release from April 7th, 2021:

- Updated Glossary, including Speed of Maximum Gust, and Total Hourly Precipitation

- Updated national and regional climate services offices contacts and prices information

- Addition of station inventory lists for 1981-2010, 1971-2000, and 1961-1990 Normals.

If you haven't already, please take our survey and provide feedback about our website: https://eccc.sondage-survey.ca/f/LanguageSelection.aspx?s=442ca660-fcf1-47c0-95a9-59707d6fd709

Hourly Data Report for January 06, 2021

SHEARWATER RCS
NOVA SCOTIA
Current Station Operator: ECCC - MSC

44°37'47.000" N
63°30'48.000" W
24.00 m
8205092
71264
AAW

Download Data

Hourly Data (January 2021)
Hourly Data Report for January 6, 2021
TIME
LST
Temp Definition
°C
Dew Point Definition
°C
Rel Hum Definition
%
Precip. Amount Definition
mm

Wind Dir Definition
10's deg

Wind Spd Definition
km/h
Visibility Definition
km
Stn Press Definition
kPa
Hmdx Definition


Wind Chill Definition


Weather Definition


00:00 0.2 -2.0 85 0.3 1 22   100.10     LegendNANA
01:00 0.4 -1.8 85 0.3 1 22   99.98     LegendNANA
02:00 0.4 -1.7 86 0.0 1 21   99.95     LegendNANA
03:00 0.6 -1.4 87 0.2 1 23   99.89     LegendNANA
04:00 0.9 -1.0 87 0.0 1 19   99.85     LegendNANA
05:00 1.0 -0.7 88 0.0 36 21   99.80     LegendNANA
06:00 1.4 -0.5 87 0.0 1 23   99.78     LegendNANA
07:00 1.4 -0.4 87 0.0 36 22   99.79     LegendNANA
08:00 1.1 -0.2 91 0.0 36 18   99.81     LegendNANA
09:00 1.5 -0.2 89 0.2 36 22   99.83     LegendNANA
10:00 2.0 -0.2 86 0.0 36 25   99.79     LegendNANA
11:00 2.2 0.0 85 0.0 36 25   99.74     LegendNANA
12:00 2.4 0.1 85 0.0 35 25   99.64     LegendNANA
13:00 2.6 0.1 83 0.0 35 31   99.55     LegendNANA
14:00 2.9 0.1 82 0.0 36 29   99.54     LegendNANA
15:00 2.6 0.0 83 0.0 35 28   99.56     LegendNANA
16:00 2.5 -0.2 82 0.0 35 27   99.60     LegendNANA
17:00 2.0 -0.8 82 0.0 35 31   99.62     LegendNANA
18:00 1.8 -0.8 83 0.0 35 25   99.68     LegendNANA
19:00 1.7 -0.6 85 0.0 34 26   99.73     LegendNANA
20:00 1.5 -0.6 86 0.0 34 27   99.75     LegendNANA
21:00 1.5 -0.7 86 0.0 35 24   99.76     LegendNANA
22:00 1.2 -0.5 89 1.9 35 26   99.76     LegendNANA
23:00 1.0 -0.4 90 0.4 35 22   99.78     LegendNANA

Notes on Data Quality.

Legend

  • E = Estimated
  • M = Missing
  • NA = Not Available*
  • [empty] = Indicates an unobserved value
Date modified: